SCP
3 3 4 4 4 4 5 6 6 6 5 5 6 6 6 6 6 6 6 4 2 0 0 0 1 0 0 0 0 0 0 0 0 0 0 0 0 0
4 4 5 5 5 6 6 6 6 5 4 4 5 5 4 4 3 4 4 4 2 1 0 0 0 0 0 0 0 0 0 0 0 0 0 0 0 0
6 7 7 7 7 6 6 5 4 4 3 4 4 4 4 2 2 2 2 2 2 1 0 0 0 0 0 0 0 0 0 0 0 0 0 0 0 0
8 8 8 7 6 5 5 4 3 3 3 4 6 6 5 3 2 2 1 1 2 1 0 0 0 0 0 0 0 0 0 0 0 0 0 0 0 0
8 7 6 6 6 5 4 4 3 3 3 5 7 8 6 3 2 2 1 1 1 1 0 0 0 0 0 0 0 0 0 0 0 0 0 0 0 0
6 6 5 6 6 5 5 4 4 3 3 5 7 8 6 4 2 2 2 1 1 1 0 0 0 0 0 0 0 0 0 0 0 0 0 0 0 0
7 7 6 6 5 5 5 5 4 3 3 4 5 7 6 4 3 2 2 2 2 1 1 0 0 0 0 0 0 0 0 0 0 0 0 0 0 0
8 8 7 6 5 5 5 5 5 4 4 4 4 5 5 4 3 2 2 2 2 2 1 1 1 1 1 0 0 0 0 0 0 0 0 0 0 0
9 9 8 7 6 6 6 6 6 5 5 4 4 4 4 4 3 2 2 2 2 2 2 2 1 1 1 1 0 0 0 0 0 0 0 0 0 0
9 9 8 8 7 7 8 9 9 9 7 5 5 4 4 4 3 3 3 2 3 3 3 2 2 2 1 1 1 0 0 0 0 0 0 0 0 0
9 8 8 7 6 6 7 10 12 12 9 7 5 4 4 3 3 3 3 3 3 3 3 3 2 2 2 1 1 0 0 0 0 0 0 0 0 0
7 7 6 5 3 3 3 6 9 11 10 8 6 4 3 2 3 3 3 3 3 3 3 3 3 2 2 1 1 1 0 0 0 0 0 0 0 0
5 5 4 2 1 1 1 2 4 6 8 8 6 4 3 3 3 3 3 3 3 3 3 3 2 2 1 1 1 1 0 0 0 0 0 0 0 0
3 3 3 1 0 0 0 0 1 3 6 7 6 4 3 2 2 3 3 3 3 2 2 2 2 1 1 1 1 1 1 1 1 1 1 0 0 0
2 2 1 1 0 0 0 0 0 2 5 5 4 3 2 2 2 2 3 3 3 2 2 2 2 1 1 1 1 1 1 1 1 1 1 1 0 0
1 1 1 0 0 0 1 1 1 2 3 3 3 3 2 2 1 1 3 3 3 3 2 2 2 2 1 1 1 1 1 1 1 1 1 2 2 2
2 2 1 1 1 1 2 2 2 3 3 3 3 3 2 2 1 1 2 3 3 3 3 3 2 2 2 1 1 1 1 1 1 1 1 2 4 3
2 2 2 2 2 2 3 3 3 3 3 3 3 3 2 2 2 2 3 4 4 4 3 3 3 3 2 2 1 1 1 1 1 1 1 2 2 2
4 4 4 4 4 4 4 4 4 4 4 4 4 4 3 3 3 3 3 5 5 4 3 3 3 3 2 2 1 1 0 1 1 1 1 1 1 1
5 6 5 5 5 5 5 5 6 6 6 6 6 6 6 6 5 5 5 5 5 4 3 3 3 3 2 2 1 1 0 0 0 0 0 0 0 0
7 7 6 5 5 5 6 7 7 8 8 9 9 9 8 8 7 6 6 5 4 3 2 2 2 2 2 2 1 1 0 0 0 0 0 0 0 0
8 7 6 5 5 6 7 7 7 8 9 10 11 10 9 8 7 6 5 4 3 2 2 1 1 1 1 1 1 1 1 0 0 0 0 0 0 0
8 7 6 6 6 6 7 7 7 7 9 10 11 10 9 8 7 6 4 3 2 2 1 1 1 1 1 1 1 1 1 0 0 0 0 0 0 0
Wind_Speed
1 1 1 1 1 2 1 1 1 1 1 1 1 2 2 2 3 3 3 6 6 5 4 4 4 5 5 6 6 6 5 5 5 4 4 4 5 5
1 1 1 1 1 2 1 1 1 2 2 1 0 1 1 2 3 2 3 6 5 5 5 5 5 4 5 6 7 7 6 5 5 4 4 4 4 4
1 1 1 2 2 2 1 1 1 0 1 2 0 0 1 1 2 1 2 3 3 5 5 5 5 4 6 6 7 7 7 6 5 4 4 4 5 5
1 1 1 1 2 2 2 2 1 1 1 2 1 1 1 1 2 2 2 2 2 4 6 5 5 5 6 7 7 7 7 6 6 5 5 5 5 5
1 1 0 1 1 1 2 2 2 1 1 1 1 1 1 1 1 2 2 1 2 4 6 6 6 5 5 6 7 7 7 7 6 5 5 5 5 5
1 1 1 1 1 2 1 2 2 2 1 1 1 1 1 1 1 1 1 1 1 1 2 3 4 5 5 6 7 7 7 7 7 6 6 5 5 5
1 1 1 1 0 1 2 1 2 2 2 2 2 1 1 1 1 2 1 1 2 2 1 2 3 3 4 5 7 8 8 8 7 7 7 7 6 6
2 1 2 2 1 1 1 2 2 2 2 2 2 2 2 2 2 2 1 1 1 1 1 2 2 3 3 4 6 8 9 8 8 7 7 7 7 6
1 1 2 0 1 1 2 3 3 4 4 3 3 3 3 2 2 2 2 2 3 2 1 2 2 2 3 3 7 9 9 8 8 7 7 7 6 6
2 2 1 1 1 2 3 2 2 2 3 3 3 4 3 2 2 3 3 3 3 2 2 2 2 1 1 2 6 8 8 8 8 8 7 7 6 6
2 1 1 1 1 2 2 2 2 2 2 3 4 4 5 5 3 2 3 2 3 2 1 2 1 1 1 1 3 5 5 7 7 7 7 6 6 4
1 1 1 1 1 1 2 2 3 3 3 4 4 4 4 4 5 4 3 3 2 2 2 1 1 0 1 0 1 2 3 5 7 7 7 6 6 3
1 1 1 2 2 2 2 3 4 4 3 4 4 3 3 2 2 3 3 3 3 2 1 1 1 1 1 1 1 2 3 2 3 3 6 7 6 5
2 1 0 1 3 4 3 4 5 5 4 3 3 2 2 2 2 2 3 3 3 3 2 2 1 2 1 2 1 1 2 2 2 3 3 5 5 5
2 2 3 4 3 4 5 5 4 3 3 3 2 2 2 2 1 1 2 2 3 2 1 1 1 2 2 2 2 1 1 1 2 2 2 3 2 2
3 2 3 4 4 4 3 3 3 3 2 2 2 2 1 1 1 1 1 1 1 1 1 1 1 2 2 2 2 2 1 1 1 2 2 2 2 2
1 2 2 2 2 2 2 2 2 1 1 2 1 1 1 1 1 1 1 1 1 1 1 0 0 0 1 1 1 1 1 1 1 1 1 1 2 2
1 2 2 2 3 2 2 1 1 1 1 1 1 1 1 2 2 1 1 1 1 1 1 0 0 1 1 1 1 1 1 1 1 1 1 1 1 1
2 3 3 3 2 2 1 1 1 1 1 1 1 1 1 1 1 1 1 0 1 1 1 1 0 1 1 1 1 1 1 1 1 1 2 1 2 2
3 3 3 2 2 1 1 1 1 0 0 1 1 1 1 1 1 1 1 1 1 1 1 1 1 1 2 2 1 2 2 1 1 2 2 1 1 1
3 3 2 2 1 1 1 1 1 1 1 1 0 1 1 1 1 1 1 1 1 1 1 2 2 3 1 1 1 1 1 2 2 2 2 1 2 2
3 3 2 1 1 1 1 1 1 1 1 1 1 1 1 1 1 2 1 1 1 1 1 1 1 1 1 2 2 2 2 2 2 3 3 3 2 2
2 1 1 1 1 1 1 1 1 1 1 1 1 1 1 2 2 2 2 2 1 1 1 1 1 1 2 2 1 1 2 2 2 1 2 3 4 3
Wind_Direction
274 280 273 276 255 260 257 222 224 258 268 238 167 143 124 115 149 157 150 165 173 179 190 189 184 192 198 196 196 192 193 193 193 196 204 208 206 206
234 260 283 285 283 276 269 264 243 233 260 282 278 113 121 143 146 143 157 162 169 183 189 187 185 191 193 191 183 181 184 186 188 190 195 201 203 209
286 264 265 280 299 298 307 295 288 271 264 290 293 136 141 148 132 184 179 169 173 185 187 188 187 187 186 181 179 179 180 184 190 195 198 203 206 211
262 282 305 318 317 315 309 299 293 266 243 281 273 232 218 193 165 210 203 179 170 181 187 187 188 190 185 179 174 175 179 183 190 199 204 206 209 212
274 269 241 281 295 299 295 300 299 302 259 268 272 244 228 209 205 241 226 212 201 181 184 190 192 188 179 177 175 178 184 189 194 196 202 206 209 214
272 255 260 243 297 301 294 306 309 316 308 293 277 262 248 236 215 250 254 232 239 206 178 185 188 191 190 187 184 185 190 194 199 203 204 207 210 213
266 257 257 177 189 304 315 325 323 313 304 291 284 292 276 293 259 257 254 237 237 187 178 193 181 188 198 202 199 196 195 197 201 206 207 206 208 209
254 248 222 190 188 218 247 268 276 278 294 292 294 287 280 271 271 271 265 254 255 211 189 235 195 192 197 194 193 194 197 200 204 209 211 209 209 210
270 261 257 245 167 260 249 240 252 261 247 247 267 279 282 293 290 289 286 265 261 255 226 253 226 210 201 198 183 189 197 202 206 208 209 210 209 210
257 245 224 178 278 288 277 269 266 279 263 239 245 258 266 270 260 256 263 269 269 264 232 250 242 231 234 187 186 187 194 199 202 204 202 205 209 213
251 264 216 179 298 309 288 275 270 276 293 281 254 250 252 254 252 264 266 263 265 260 255 254 255 283 262 204 179 177 194 203 204 201 199 202 205 210
242 183 143 171 267 285 273 272 264 268 282 290 282 269 256 243 231 223 239 248 251 254 236 233 227 232 283 221 161 182 200 210 207 201 199 201 198 200
274 234 156 170 213 246 260 262 258 273 272 266 267 265 253 237 219 214 224 223 235 253 243 220 222 242 235 252 252 208 195 191 187 192 195 203 203 195
272 282 176 234 251 257 259 264 269 281 271 266 268 266 259 253 234 209 222 227 222 238 245 217 230 222 236 257 257 215 203 192 177 178 183 188 203 211
264 289 272 263 269 261 253 260 265 257 254 260 265 273 261 250 231 219 226 231 234 245 240 216 219 219 219 233 234 210 218 219 191 177 173 169 177 180
247 241 243 252 262 270 266 250 244 253 253 258 261 266 274 266 245 224 225 227 243 281 263 204 205 201 220 226 208 226 213 193 197 179 166 181 193 189
261 242 247 252 259 253 254 254 242 236 262 281 289 301 298 298 285 258 211 231 259 265 281 306 318 156 162 197 199 210 205 231 216 190 188 218 220 200
188 243 252 250 253 252 251 248 255 280 284 273 275 287 285 279 277 268 242 223 237 252 261 237 71 38 25 357 294 227 218 215 217 209 200 199 230 227
209 246 250 253 255 255 239 239 255 262 263 281 273 271 275 277 280 280 274 271 298 297 298 281 218 210 243 278 311 291 241 229 202 212 221 219 231 227
229 241 246 248 244 246 256 258 255 249 257 272 288 304 302 285 286 292 285 267 273 276 287 299 300 264 240 228 241 269 237 211 210 225 246 268 272 248
238 241 242 237 237 228 260 288 274 240 250 244 266 283 274 278 282 292 302 304 269 261 257 261 259 249 248 184 188 228 231 236 224 215 225 237 246 236
239 240 229 215 204 201 200 223 254 253 263 267 261 266 274 274 271 274 276 276 261 254 263 271 252 241 233 229 220 208 212 231 247 247 237 216 210 224
225 229 207 219 220 217 212 224 240 244 245 276 280 267 266 265 260 254 249 255 266 261 249 243 257 265 251 241 237 229 216 208 201 220 283 271 237 222